Regional Weather Roundup
Issued by NWS

Home | Current Version | Previous Version | Graphics & Text | Print | Product List | Glossary On
Versions: 1 2 3 4 5 6 7 8 9 10 11 12 13 14 15 16 17 18 19 20 21 22 23 24 25 26 27 28
000
ASUS45 KBOI 231810
RWRID

IDAHO REGIONAL WEATHER ROUNDUP
NATIONAL WEATHER SERVICE BOISE ID
1200 PM MDT FRI JUN 23 2017

NOTE: "FAIR" INDICATES FEW OR NO CLOUDS BELOW 12000 FEET
WITH NO SIGNIFICANT WEATHER AND/OR OBSTRUCTIONS TO VISIBILITY

IDZ012-014-231900-
SOUTHWEST IDAHO


CITY           SKY/WX    TMP DP  RH WIND       PRES   REMARKS
BOISE          SUNNY     71  36  27 W7        30.20S
CALDWELL       SUNNY     73  37  27 NW8       30.20S
MOUNTAIN HOME  SUNNY     76  33  21 SE5       30.19F
$$

IDZ016-017-231900-
SOUTHCENTRAL IDAHO


CITY           SKY/WX    TMP DP  RH WIND       PRES   REMARKS
BURLEY         SUNNY     68  35  29 CALM      30.22F
JEROME         SUNNY     68  35  29 SE9       30.23F
TWIN FALLS     SUNNY     71  36  27 VRB3      30.23F
$$

IDZ019>023-231900-
SOUTHEAST IDAHO


CITY           SKY/WX    TMP DP  RH WIND       PRES   REMARKS
IDAHO FALLS    SUNNY     68  23  18 NE9       30.25F
POCATELLO      SUNNY     70  35  27 NE13      30.24F
REXBURG        SUNNY     66  27  23 N5        30.25F
$$

IDZ006-010-011-018-031-032-231900-
CENTRAL IDAHO MOUNTAINS


CITY           SKY/WX    TMP DP  RH WIND       PRES   REMARKS
MCCALL         SUNNY     65  29  25 CALM      30.25S
HAILEY         SUNNY     64  37  36 E9        30.28F
STANLEY          N/A     64  28  25 VRB5      30.30F
SALMON         SUNNY     64  34  32 CALM      30.24F
CHALLIS        SUNNY     65  30  27 CALM      30.26F
$$

IDZ002-004-006-007-026-231900-
NORTHERN IDAHO


CITY           SKY/WX    TMP DP  RH WIND       PRES   REMARKS
LEWISTON       SUNNY     72  43  35 VRB5      30.23F
LOWELL           N/A     68  37  32 CALM      30.21F
COEUR D`ALENE  SUNNY     70  39  32 VRB7      30.25S
MULLAN PASS    SUNNY     57  30  35 VRB5      30.32S
$$




USA.gov is the U.S. government's official web portal to all federal, state and local government web resources and services.